Wendover, UT

7:50 AM MDT on July 24, 2016 (GMT -0600)
Wendover

Weather History for KENV - October, 2013

Change the Weather History Date:

Wednesday, October 23, 2013

  Actual Average Record
Temperature  
Mean Temperature 48 °F -  
Max Temperature 60 °F 58 °F 74 °F (1959)
Min Temperature 35 °F 38 °F 28 °F (1980)
Degree Days  
Heating Degree Days 18    
Moisture  
Dew Point 29 °F    
Average Humidity 52    
Maximum Humidity 70    
Minimum Humidity 31    
Precipitation  
Precipitation 0.00 in - - ()
Sea Level Pressure  
Sea Level Pressure 30.17 in    
Wind  
Wind Speed 2 mph (East)    
Max Wind Speed 8 mph    
Max Gust Speed -    
Visibility 10 miles    
Events      
Averages and records for this station are not official NWS values.
T = Trace of Precipitation, MM = Missing Value Source: NWS Daily Summary

Daily Weather History Graph

Daily Weather History Graph

Search for Another Location

Airport or City:

Trip Planner

Search our weather history database for the weather conditions in past years. The results will help you decide how hot, cold, wet, or windy it might be!

Date:

Astronomy

Oct. 23, 2013 Rise Set
Actual Time 7:56 AM MDT 6:43 PM MDT
Civil Twilight 7:28 AM MDT 7:11 PM MDT
Nautical Twilight 6:56 AM MDT 7:43 PM MDT
Astronomical Twilight 6:24 AM MDT 8:15 PM MDT
Moon 10:17 PM MDT (10/23) 12:17 PM MDT (10/23)
Length of Visible Light 11h 43m
Length of Day
10h 47m
Waning Gibbous, 79% of the Moon is Illuminated
Oct 23
Waning Gibbous
Oct 26
Last Quarter
Nov 3
New
Nov 9
First Quarter
Nov 17
Full

Hourly Weather History & Observations

Time (MDT) Temp. Windchill Dew Point Humidity Pressure Visibility Wind Dir Wind Speed Gust Speed Precip Events Conditions
12:15 AM 42.8 °F - 28.4 °F 57% 30.18 in 10.0 mi Calm Calm - N/A   Clear
12:35 AM 41.0 °F - 28.4 °F 61% 30.17 in 10.0 mi Calm Calm - N/A   Clear
12:55 AM 42.8 °F - 28.4 °F 57% 30.17 in 10.0 mi Calm Calm - N/A   Clear
1:15 AM 42.8 °F - 28.4 °F 57% 30.17 in 10.0 mi Calm Calm - N/A   Clear
1:35 AM 42.8 °F - 28.4 °F 57% 30.17 in 10.0 mi Calm Calm - N/A   Clear
1:55 AM 42.8 °F - 28.4 °F 57% 30.17 in 10.0 mi Calm Calm - N/A   Clear
2:15 AM 41.0 °F - 28.4 °F 61% 30.17 in 10.0 mi Calm Calm - N/A   Clear
2:35 AM 39.2 °F - 28.4 °F 65% 30.17 in 10.0 mi Calm Calm - N/A   Clear
2:55 AM 37.4 °F - 26.6 °F 65% 30.18 in 10.0 mi Calm Calm - N/A   Clear
3:15 AM 39.2 °F 37.0 °F 28.4 °F 65% 30.18 in 10.0 mi NNE 3.5 mph - N/A   Clear
3:35 AM 39.2 °F - 28.4 °F 65% 30.18 in 10.0 mi Calm Calm - N/A   Clear
3:55 AM 39.2 °F - 28.4 °F 65% 30.18 in 10.0 mi Calm Calm - N/A   Clear
4:15 AM 39.2 °F - 28.4 °F 65% 30.17 in 10.0 mi Calm Calm - N/A   Clear
4:35 AM 37.4 °F 34.9 °F 26.6 °F 65% 30.17 in 10.0 mi WSW 3.5 mph - N/A   Clear
4:55 AM 37.4 °F - 26.6 °F 65% 30.17 in 10.0 mi Calm Calm - N/A   Clear
5:15 AM 39.2 °F - 26.6 °F 61% 30.17 in 10.0 mi Calm Calm - N/A   Clear
5:35 AM 37.4 °F - 26.6 °F 65% 30.18 in 10.0 mi Calm Calm - N/A   Clear
5:55 AM 37.4 °F 34.9 °F 26.6 °F 65% 30.18 in 10.0 mi NNE 3.5 mph - N/A   Clear
6:15 AM 35.6 °F 29.2 °F 24.8 °F 65% 30.18 in 10.0 mi NNE 8.1 mph - N/A   Clear
6:35 AM 35.6 °F 30.7 °F 24.8 °F 65% 30.18 in 10.0 mi NNE 5.8 mph - N/A   Clear
6:55 AM 35.6 °F 29.9 °F 26.6 °F 70% 30.18 in 10.0 mi ENE 6.9 mph - N/A   Clear
7:15 AM 37.4 °F 34.9 °F 26.6 °F 65% 30.18 in 10.0 mi NE 3.5 mph - N/A   Clear
7:35 AM 37.4 °F - 26.6 °F 65% 30.19 in 10.0 mi Calm Calm - N/A   Clear
7:55 AM 35.6 °F - 24.8 °F 65% 30.19 in 10.0 mi Calm Calm - N/A   Clear
8:15 AM 35.6 °F - 24.8 °F 65% 30.19 in 10.0 mi Calm Calm - N/A   Clear
8:35 AM 35.6 °F 32.8 °F 26.6 °F 70% 30.19 in 10.0 mi WNW 3.5 mph - N/A   Clear
8:55 AM 37.4 °F - 28.4 °F 70% 30.20 in 10.0 mi Calm Calm - N/A   Clear
9:15 AM 41.0 °F - 28.4 °F 61% 30.20 in 10.0 mi Calm Calm - N/A   Clear
9:35 AM 42.8 °F - 28.4 °F 57% 30.21 in 10.0 mi Calm Calm - N/A   Clear
9:55 AM 44.6 °F - 30.2 °F 57% 30.21 in 10.0 mi Calm Calm - N/A   Clear
10:15 AM 44.6 °F - 30.2 °F 57% 30.21 in 10.0 mi Calm Calm - N/A   Clear
10:35 AM 46.4 °F - 30.2 °F 53% 30.21 in 10.0 mi Calm Calm - N/A   Clear
10:55 AM 48.2 °F - 30.2 °F 50% 30.21 in 10.0 mi Calm Calm - N/A   Clear
11:15 AM 50.0 °F - 32.0 °F 50% 30.20 in 10.0 mi East 6.9 mph - N/A   Clear
11:35 AM 51.8 °F - 30.2 °F 44% 30.20 in 10.0 mi East 6.9 mph - N/A   Clear
11:55 AM 51.8 °F - 30.2 °F 44% 30.20 in 10.0 mi East 8.1 mph - N/A   Clear
12:15 PM 53.6 °F - 30.2 °F 41% 30.20 in 10.0 mi East 8.1 mph - N/A   Clear
12:35 PM 53.6 °F - 30.2 °F 41% 30.20 in 10.0 mi ESE 6.9 mph - N/A   Clear
12:55 PM 53.6 °F - 30.2 °F 41% 30.20 in 10.0 mi East 6.9 mph - N/A   Clear
1:15 PM 55.4 °F - 30.2 °F 38% 30.19 in 10.0 mi East 6.9 mph - N/A   Clear
1:35 PM 55.4 °F - 30.2 °F 38% 30.18 in 10.0 mi East 5.8 mph - N/A   Clear
1:55 PM 55.4 °F - 30.2 °F 38% 30.17 in 10.0 mi East 5.8 mph - N/A   Clear
2:15 PM 57.2 °F - 32.0 °F 38% 30.17 in 10.0 mi East 5.8 mph - N/A   Clear
2:35 PM 57.2 °F - 32.0 °F 38% 30.16 in 10.0 mi East 5.8 mph - N/A   Clear
2:55 PM 57.2 °F - 30.2 °F 36% 30.16 in 10.0 mi East 5.8 mph - N/A   Clear
3:15 PM 60.8 °F - 32.0 °F 34% 30.15 in 10.0 mi ENE 5.8 mph - N/A   Clear
3:35 PM 59.0 °F - 30.2 °F 34% 30.15 in 10.0 mi ESE 4.6 mph - N/A   Clear
3:55 PM 60.8 °F - 32.0 °F 34% 30.14 in 10.0 mi East 4.6 mph - N/A   Clear
4:15 PM 60.8 °F - 32.0 °F 34% 30.14 in 10.0 mi SE 4.6 mph - N/A   Clear
4:35 PM 60.8 °F - 32.0 °F 34% 30.14 in 10.0 mi SE 5.8 mph - N/A   Clear
4:55 PM 60.8 °F - 30.2 °F 31% 30.14 in 10.0 mi SE 3.5 mph - N/A   Clear
5:15 PM 60.8 °F - 30.2 °F 31% 30.13 in 10.0 mi East 3.5 mph - N/A   Clear
5:35 PM 60.8 °F - 30.2 °F 31% 30.13 in 10.0 mi ESE 3.5 mph - N/A   Clear
5:55 PM 60.8 °F - 30.2 °F 31% 30.13 in 10.0 mi SE 4.6 mph - N/A   Clear
6:35 PM 57.2 °F - 30.2 °F 36% 30.12 in 10.0 mi Calm Calm - N/A   Clear
6:55 PM 57.2 °F - 30.2 °F 36% 30.13 in 10.0 mi Calm Calm - N/A   Clear
7:15 PM 55.4 °F - 32.0 °F 41% 30.13 in 10.0 mi Calm Calm - N/A   Clear
7:35 PM 53.6 °F - 30.2 °F 41% 30.13 in 10.0 mi WNW 3.5 mph - N/A   Clear
7:55 PM 53.6 °F - 30.2 °F 41% 30.13 in 10.0 mi NW 3.5 mph - N/A   Clear
8:15 PM 51.8 °F - 32.0 °F 47% 30.13 in 10.0 mi NW 3.5 mph - N/A   Clear
8:35 PM 48.2 °F - 30.2 °F 50% 30.13 in 10.0 mi WNW 4.6 mph - N/A   Clear
8:55 PM 46.4 °F 43.5 °F 30.2 °F 53% 30.12 in 10.0 mi WNW 5.8 mph - N/A   Clear
9:15 PM 48.2 °F - 30.2 °F 50% 30.13 in 10.0 mi WNW 4.6 mph - N/A   Clear
9:35 PM 46.4 °F - 30.2 °F 53% 30.13 in 10.0 mi Calm Calm - N/A   Clear
9:55 PM 46.4 °F - 30.2 °F 53% 30.13 in 10.0 mi Calm Calm - N/A   Clear
10:15 PM 44.6 °F - 30.2 °F 57% 30.13 in 10.0 mi Calm Calm - N/A   Clear
10:35 PM 44.6 °F - 30.2 °F 57% 30.13 in 10.0 mi Calm Calm - N/A   Clear
10:55 PM 44.6 °F - 30.2 °F 57% 30.14 in 10.0 mi Calm Calm - N/A   Clear
11:15 PM 44.6 °F - 30.2 °F 57% 30.14 in 10.0 mi Calm Calm - N/A   Clear
11:35 PM 44.6 °F - 30.2 °F 57% 30.13 in 10.0 mi Calm Calm - N/A   Clear
11:55 PM 42.8 °F - 28.4 °F 57% 30.14 in 10.0 mi Calm Calm - N/A   Clear